Regional Weather Roundup
Issued by NWS Cleveland, OH

Home | Current Version | Previous Version | Text Only | Print | Product List | Glossary On
Versions: 1 2 3 4 5 6 7 8 9 10 11 12 13 14 15 16 17 18 19 20 21 22 23 24 25 26 27 28 29 30 31 32 33 34 35 36 37 38 39 40 41 42 43 44 45 46 47 48 49 50
000
ASUS41 KCLE 031710
RWRCLE
OHIO REGIONAL WEATHER ROUNDUP
NATIONAL WEATHER SERVICE WILMINGTON, OH
100 PM EDT THU SEP 03 2015

NOTE: "FAIR" INDICATES FEW OR NO CLOUDS BELOW 12,000 FEET WITH NO
SIGNIFICANT WEATHER AND/OR OBSTRUCTIONS TO VISIBILITY.

OHZ001>008-015>018-024>027-034-035-043-044-031800-
   NORTHWEST OHIO

CITY           SKY/WX    TMP DP  RH WIND       PRES   REMARKS
DEFIANCE       SUNNY     88  68  51 VRB6      29.98F HX  91
FINDLAY        SUNNY     87  70  56 W9        29.98F HX  92
TOLEDO EXPRESS SUNNY     86  69  56 W10       29.97F HX  90
TOLEDO EXEC    SUNNY     87  68  52 W9        29.97F HX  90
LIMA           SUNNY     86  69  56 W10       30.00F HX  90
$$

OHZ009>014-019>023-028>033-038-089-031800-
   NORTHEAST OHIO

CITY           SKY/WX    TMP DP  RH WIND       PRES   REMARKS
CLE-HOPKINS    MOSUNNY   87  70  56 W9        29.99F HX  92
CLE-LAKEFRONT  SUNNY     81  72  74 NW7       29.97S
CUY CO. ARPT   MOSUNNY   84  72  65 W12       29.99S
LORAIN-ELYRIA  SUNNY     86  69  56 NW7       29.99S HX  90
ASHTABULA      MOSUNNY   83  73  72 VRB3      29.98F
AKRON-CANTON   MOSUNNY   87  67  51 NW5       30.00F HX  90
WOOSTER        MOSUNNY   86  68  54 NW5       30.00F
MANSFIELD      MOSUNNY   88  68  51 W7        30.01F HX  91
YOUNGSTOWN     MOSUNNY   84  69  60 VRB5      29.99F
$$

OHZ042-051>053-060>062-070>072-077>081-031800-
  SOUTHWEST OHIO

CITY           SKY/WX    TMP DP  RH WIND       PRES   REMARKS
CINC-COVINGTON MOSUNNY   88  67  49 VRB3      30.03F HX  91
CINC-LUNKEN    MOSUNNY   88  68  51 W7        30.01F HX  91
HAMILTON       PTSUNNY   89  68  49 VRB6      30.02F HX  93
DAYTON         MOSUNNY   88  68  51 NW9       30.03F HX  91
WRIGHT-PAT AFB MOSUNNY   85  70  59 W6        30.01F HX  90
DAYTON GENERAL SUNNY     85  67  54 NW8       30.02F
WILMINGTON     SUNNY     86  68  54 W7        30.03F
$$

OHZ036-037-039>041-045>050-054>059-063>069-073>076-082>088-031800-
  CENTRAL AND SOUTHEAST OHIO

CITY           SKY/WX    TMP DP  RH WIND       PRES   REMARKS
COLUMBUS       MOSUNNY   85  70  60 VRB3      30.00F
OSU AIRPORT    MOSUNNY   86  69  56 W7        30.00F HX  90
BOLTON FIELD   MOSUNNY   86  72  62 W7        30.01F HX  92
RICKENBACK AFB SUNNY     85  69  60 CALM      30.00F
NEWARK         MOSUNNY   87  71  58 VRB6      30.00F HX  93
MARION         MOSUNNY   84  68  58 W8        30.00F
LANCASTER      SUNNY     87  69  54 VRB3      30.02F HX  91
ZANESVILLE     MOSUNNY   87  66  49 VRB7      30.00F
NEW PHILLY     PTSUNNY   87  67  51 N5        29.99F HX  90
$$


USA.gov is the U.S. government's official web portal to all federal, state and local government web resources and services.